Time,TemperatureF,DewpointF,PressureIn,WindDirection,WindDirectionDegrees,WindSpeedMPH,WindSpeedGustMPH,Humidity,HourlyPrecipIn,Conditions,Clouds,dailyrainin,SoftwareType,DateUTC
2013-02-23 00:01:00,23.0,15.0,-100.00,West,265,9.0,14.0,70,0.00,,,-99.99,,2013-02-23 06:01:00,
2013-02-23 00:11:00,23.0,15.0,-100.00,West,275,9.0,14.0,70,0.00,,,-99.99,,2013-02-23 06:11:00,
2013-02-23 00:22:00,22.0,14.0,-100.00,West,265,10.0,13.0,70,0.00,,,-99.99,,2013-02-23 06:22:00,
2013-02-23 00:31:00,22.0,14.0,-100.00,West,270,11.0,17.0,70,0.00,,,-99.99,,2013-02-23 06:31:00,
2013-02-23 00:41:00,22.0,14.0,-100.00,West,270,11.0,17.0,70,0.00,,,-99.99,,2013-02-23 06:41:00,
2013-02-23 00:51:00,22.0,14.0,-100.00,WSW,255,7.0,11.0,70,0.00,,,-99.99,,2013-02-23 06:51:00,
2013-02-23 01:01:00,22.0,14.0,-100.00,WSW,255,7.0,11.0,70,0.00,,,-99.99,,2013-02-23 07:01:00,
2013-02-23 01:11:00,22.0,14.0,-100.00,West,275,11.0,14.0,70,0.00,,,-99.99,,2013-02-23 07:11:00,
2013-02-23 01:21:00,22.0,14.0,-100.00,West,265,7.0,12.0,71,0.00,,,-99.99,,2013-02-23 07:21:00,
2013-02-23 01:32:00,22.0,14.0,-100.00,West,280,6.0,11.0,72,0.00,,,-99.99,,2013-02-23 07:32:00,
2013-02-23 01:41:00,22.0,14.0,-100.00,West,280,6.0,11.0,72,0.00,,,-99.99,,2013-02-23 07:41:00,
2013-02-23 01:51:00,21.0,14.0,-100.00,WSW,255,7.0,9.0,72,0.00,,,-99.99,,2013-02-23 07:51:00,
2013-02-23 02:01:00,21.0,14.0,-100.00,WSW,255,7.0,9.0,72,0.00,,,-99.99,,2013-02-23 08:01:00,
2013-02-23 02:11:00,21.0,14.0,-100.00,West,270,9.0,11.0,72,0.00,,,-99.99,,2013-02-23 08:11:00,
2013-02-23 02:21:00,21.0,14.0,-100.00,WSW,250,7.0,11.0,73,0.00,,,-99.99,,2013-02-23 08:21:00,
2013-02-23 02:31:00,20.0,13.0,-100.00,WSW,250,6.0,9.0,73,0.00,,,-99.99,,2013-02-23 08:31:00,
2013-02-23 02:41:00,20.0,13.0,-100.00,WSW,250,6.0,9.0,73,0.00,,,-99.99,,2013-02-23 08:41:00,
2013-02-23 02:52:00,19.0,13.0,-100.00,West,260,6.0,7.0,74,0.00,,,-99.99,,2013-02-23 08:52:00,
2013-02-23 03:01:00,19.0,13.0,-100.00,West,260,6.0,7.0,74,0.00,,,-99.99,,2013-02-23 09:01:00,
2013-02-23 03:11:00,18.0,12.0,-100.00,West,260,8.0,12.0,75,0.00,,,-99.99,,2013-02-23 09:11:00,
2013-02-23 03:21:00,18.0,12.0,-100.00,WSW,250,6.0,13.0,75,0.00,,,-99.99,,2013-02-23 09:21:00,
2013-02-23 03:31:00,18.0,12.0,-100.00,WSW,250,7.0,11.0,76,0.00,,,-99.99,,2013-02-23 09:31:00,
2013-02-23 03:41:00,18.0,12.0,-100.00,WSW,250,7.0,11.0,76,0.00,,,-99.99,,2013-02-23 09:41:00,
2013-02-23 03:51:00,17.0,11.0,-100.00,West,265,6.0,9.0,77,0.00,,,-99.99,,2013-02-23 09:51:00,
2013-02-23 04:01:00,17.0,11.0,-100.00,West,265,6.0,9.0,77,0.00,,,-99.99,,2013-02-23 10:01:00,
2013-02-23 04:11:00,17.0,11.0,-100.00,West,270,6.0,9.0,77,0.00,,,-99.99,,2013-02-23 10:11:00,
2013-02-23 04:21:00,16.0,11.0,-100.00,West,265,6.0,7.0,77,0.00,,,-99.99,,2013-02-23 10:21:00,
2013-02-23 04:31:00,16.0,11.0,-100.00,West,260,5.0,9.0,78,0.00,,,-99.99,,2013-02-23 10:31:00,
2013-02-23 04:41:00,16.0,11.0,-100.00,West,260,5.0,9.0,78,0.00,,,-99.99,,2013-02-23 10:41:00,
2013-02-23 04:51:00,16.0,10.0,-100.00,WSW,250,7.0,10.0,78,0.00,,,-99.99,,2013-02-23 10:51:00,
2013-02-23 05:02:00,15.0,10.0,-100.00,West,260,5.0,9.0,78,0.00,,,-99.99,,2013-02-23 11:02:00,
2013-02-23 05:11:00,15.0,10.0,-100.00,West,260,6.0,9.0,79,0.00,,,-99.99,,2013-02-23 11:11:00,
2013-02-23 05:21:00,15.0,10.0,-100.00,West,260,6.0,9.0,79,0.00,,,-99.99,,2013-02-23 11:21:00,
2013-02-23 05:32:00,15.0,9.0,-100.00,WSW,250,5.0,9.0,79,0.00,,,-99.99,,2013-02-23 11:32:00,
2013-02-23 05:41:00,15.0,9.0,-100.00,WSW,250,5.0,9.0,79,0.00,,,-99.99,,2013-02-23 11:41:00,
2013-02-23 05:52:00,14.0,9.0,-100.00,SW,220,7.0,10.0,80,0.00,,,-99.99,,2013-02-23 11:52:00,
2013-02-23 06:02:00,14.0,9.0,-100.00,SW,220,7.0,10.0,80,0.00,,,-99.99,,2013-02-23 12:02:00,
2013-02-23 06:11:00,13.0,9.0,-100.00,SW,225,7.0,10.0,80,0.00,,,-99.99,,2013-02-23 12:11:00,
2013-02-23 06:21:00,13.0,8.0,-100.00,SW,230,8.0,11.0,80,0.00,,,-99.99,,2013-02-23 12:21:00,
2013-02-23 06:32:00,13.0,8.0,-100.00,WSW,245,6.0,9.0,80,0.00,,,-99.99,,2013-02-23 12:32:00,
2013-02-23 06:42:00,13.0,8.0,-100.00,WSW,245,6.0,9.0,80,0.00,,,-99.99,,2013-02-23 12:42:00,
2013-02-23 06:52:00,13.0,8.0,-100.00,WSW,255,6.0,8.0,81,0.00,,,-99.99,,2013-02-23 12:52:00,
2013-02-23 07:01:00,13.0,8.0,-100.00,WSW,255,6.0,8.0,81,0.00,,,-99.99,,2013-02-23 13:01:00,
2013-02-23 07:11:00,13.0,8.0,-100.00,WSW,255,6.0,8.0,81,0.00,,,-99.99,,2013-02-23 13:11:00,
2013-02-23 07:22:00,13.0,8.0,-100.00,WSW,245,4.0,7.0,81,0.00,,,-99.99,,2013-02-23 13:22:00,
2013-02-23 07:32:00,13.0,8.0,-100.00,West,260,3.0,6.0,81,0.00,,,-99.99,,2013-02-23 13:32:00,
2013-02-23 07:42:00,13.0,8.0,-100.00,West,260,3.0,6.0,81,0.00,,,-99.99,,2013-02-23 13:42:00,
2013-02-23 07:52:00,14.0,9.0,-100.00,WSW,240,3.0,5.0,81,0.00,,,-99.99,,2013-02-23 13:52:00,
2013-02-23 08:02:00,14.0,9.0,-100.00,WSW,240,3.0,5.0,81,0.00,,,-99.99,,2013-02-23 14:02:00,
2013-02-23 08:11:00,14.0,9.0,-100.00,WSW,240,3.0,5.0,81,0.00,,,-99.99,,2013-02-23 14:11:00,
2013-02-23 08:21:00,14.0,9.0,-100.00,WSW,240,3.0,5.0,81,0.00,,,-99.99,,2013-02-23 14:21:00,
2013-02-23 08:32:00,17.0,11.0,-100.00,WSW,240,1.0,5.0,78,0.00,,,-99.99,,2013-02-23 14:32:00,
2013-02-23 08:41:00,17.0,11.0,-100.00,WSW,240,1.0,5.0,78,0.00,,,-99.99,,2013-02-23 14:41:00,
2013-02-23 08:52:00,17.0,11.0,-100.00,SSW,205,5.0,6.0,76,0.00,,,-99.99,,2013-02-23 14:52:00,
2013-02-23 09:02:00,17.0,11.0,-100.00,SSW,205,5.0,6.0,76,0.00,,,-99.99,,2013-02-23 15:02:00,
2013-02-23 09:11:00,16.0,10.0,-100.00,SSW,210,6.0,7.0,75,0.00,,,-99.99,,2013-02-23 15:11:00,
2013-02-23 09:21:00,18.0,11.0,-100.00,SSW,195,4.0,6.0,74,0.00,,,-99.99,,2013-02-23 15:21:00,
2013-02-23 09:32:00,18.0,11.0,-100.00,SW,215,4.0,8.0,71,0.00,,,-99.99,,2013-02-23 15:32:00,
2013-02-23 09:41:00,18.0,11.0,-100.00,SW,215,4.0,8.0,71,0.00,,,-99.99,,2013-02-23 15:41:00,
2013-02-23 09:51:00,19.0,11.0,-100.00,SSW,200,6.0,7.0,69,0.00,,,-99.99,,2013-02-23 15:51:00,
2013-02-23 10:01:00,19.0,11.0,-100.00,SSW,200,6.0,7.0,69,0.00,,,-99.99,,2013-02-23 16:01:00,
2013-02-23 10:11:00,20.0,11.0,-100.00,SW,230,5.0,8.0,68,0.00,,,-99.99,,2013-02-23 16:11:00,
2013-02-23 10:21:00,20.0,11.0,-100.00,SSW,205,7.0,8.0,68,0.00,,,-99.99,,2013-02-23 16:21:00,
2013-02-23 10:31:00,22.0,13.0,-100.00,SW,235,4.0,7.0,67,0.00,,,-99.99,,2013-02-23 16:31:00,
2013-02-23 10:42:00,22.0,13.0,-100.00,SW,235,4.0,7.0,67,0.00,,,-99.99,,2013-02-23 16:42:00,
2013-02-23 10:51:00,23.0,13.0,-100.00,SSW,200,5.0,7.0,64,0.00,,,-99.99,,2013-02-23 16:51:00,
2013-02-23 11:01:00,23.0,13.0,-100.00,SSW,200,5.0,7.0,64,0.00,,,-99.99,,2013-02-23 17:01:00,
2013-02-23 11:21:00,22.0,12.0,-100.00,South,190,6.0,9.0,63,0.00,,,-99.99,,2013-02-23 17:21:00,
2013-02-23 11:31:00,24.0,13.0,-100.00,SW,225,6.0,7.0,63,0.00,,,-99.99,,2013-02-23 17:31:00,
2013-02-23 11:41:00,24.0,13.0,-100.00,SW,225,6.0,7.0,63,0.00,,,-99.99,,2013-02-23 17:41:00,
2013-02-23 11:52:00,26.0,14.0,-100.00,SSW,195,6.0,9.0,61,0.00,,,-99.99,,2013-02-23 17:52:00,
2013-02-23 12:01:00,26.0,14.0,-100.00,SSW,195,6.0,9.0,61,0.00,,,-99.99,,2013-02-23 18:01:00,
2013-02-23 12:12:00,26.0,14.0,-100.00,SW,230,6.0,9.0,60,0.00,,,-99.99,,2013-02-23 18:12:00,
2013-02-23 12:21:00,26.0,15.0,-100.00,SW,225,4.0,9.0,60,0.00,,,-99.99,,2013-02-23 18:21:00,
2013-02-23 12:32:00,28.0,15.0,-100.00,SW,230,7.0,11.0,57,0.00,,,-99.99,,2013-02-23 18:32:00,
2013-02-23 12:41:00,28.0,15.0,-100.00,SW,230,7.0,11.0,57,0.00,,,-99.99,,2013-02-23 18:41:00,
2013-02-23 12:51:00,28.0,15.0,-100.00,SW,230,6.0,12.0,57,0.00,,,-99.99,,2013-02-23 18:51:00,
2013-02-23 13:01:00,28.0,15.0,-100.00,SW,230,6.0,12.0,57,0.00,,,-99.99,,2013-02-23 19:01:00,
2013-02-23 13:11:00,28.0,15.0,-100.00,SW,230,7.0,11.0,56,0.00,,,-99.99,,2013-02-23 19:11:00,
2013-02-23 13:21:00,28.0,14.0,-100.00,WSW,240,7.0,11.0,56,0.00,,,-99.99,,2013-02-23 19:21:00,
2013-02-23 13:32:00,29.0,15.0,-100.00,West,265,7.0,11.0,55,0.00,,,-99.99,,2013-02-23 19:32:00,
2013-02-23 13:41:00,29.0,15.0,-100.00,West,265,7.0,11.0,55,0.00,,,-99.99,,2013-02-23 19:41:00,
2013-02-23 13:52:00,29.0,15.0,-100.00,SW,220,8.0,11.0,53,0.00,,,-99.99,,2013-02-23 19:52:00,
2013-02-23 14:01:00,29.0,15.0,-100.00,SW,220,8.0,11.0,53,0.00,,,-99.99,,2013-02-23 20:01:00,
2013-02-23 14:11:00,29.0,15.0,-100.00,SSW,195,7.0,11.0,53,0.00,,,-99.99,,2013-02-23 20:11:00,
2013-02-23 14:21:00,29.0,15.0,-100.00,SSW,195,7.0,9.0,53,0.00,,,-99.99,,2013-02-23 20:21:00,
2013-02-23 14:32:00,29.0,15.0,-100.00,SSW,195,7.0,11.0,54,0.00,,,-99.99,,2013-02-23 20:32:00,
2013-02-23 14:41:00,29.0,15.0,-100.00,SSW,195,7.0,11.0,54,0.00,,,-99.99,,2013-02-23 20:41:00,
2013-02-23 14:52:00,29.0,14.0,-100.00,SW,215,7.0,10.0,54,0.00,,,-99.99,,2013-02-23 20:52:00,
2013-02-23 15:01:00,29.0,14.0,-100.00,SW,215,7.0,10.0,54,0.00,,,-99.99,,2013-02-23 21:01:00,
2013-02-23 15:11:00,30.0,15.0,-100.00,SW,215,4.0,10.0,53,0.00,,,-99.99,,2013-02-23 21:11:00,
2013-02-23 15:22:00,30.0,15.0,-100.00,SSW,205,4.0,8.0,52,0.00,,,-99.99,,2013-02-23 21:22:00,
2013-02-23 15:31:00,30.0,15.0,-100.00,SSW,195,4.0,7.0,51,0.00,,,-99.99,,2013-02-23 21:31:00,
2013-02-23 15:41:00,30.0,15.0,-100.00,SSW,195,4.0,7.0,51,0.00,,,-99.99,,2013-02-23 21:41:00,
2013-02-23 15:51:00,30.0,14.0,-100.00,SSE,165,5.0,7.0,50,0.00,,,-99.99,,2013-02-23 21:51:00,
2013-02-23 16:01:00,30.0,14.0,-100.00,SSE,165,5.0,7.0,50,0.00,,,-99.99,,2013-02-23 22:01:00,
2013-02-23 16:11:00,30.0,14.0,-100.00,South,170,7.0,9.0,50,0.00,,,-99.99,,2013-02-23 22:11:00,
2013-02-23 16:21:00,30.0,14.0,-100.00,SSE,165,5.0,9.0,51,0.00,,,-99.99,,2013-02-23 22:21:00,
2013-02-23 16:31:00,30.0,14.0,-100.00,SE,145,4.0,9.0,51,0.00,,,-99.99,,2013-02-23 22:31:00,
2013-02-23 16:41:00,30.0,14.0,-100.00,SE,145,4.0,9.0,51,0.00,,,-99.99,,2013-02-23 22:41:00,
2013-02-23 16:51:00,30.0,14.0,-100.00,SE,135,3.0,6.0,52,0.00,,,-99.99,,2013-02-23 22:51:00,
2013-02-23 17:01:00,30.0,14.0,-100.00,SE,135,3.0,6.0,52,0.00,,,-99.99,,2013-02-23 23:01:00,
2013-02-23 17:11:00,29.0,14.0,-100.00,SE,135,3.0,4.0,52,0.00,,,-99.99,,2013-02-23 23:11:00,
2013-02-23 17:21:00,29.0,14.0,-100.00,SE,145,4.0,5.0,52,0.00,,,-99.99,,2013-02-23 23:21:00,
2013-02-23 17:31:00,30.0,14.0,-100.00,SSE,160,4.0,6.0,51,0.00,,,-99.99,,2013-02-23 23:31:00,
2013-02-23 17:41:00,30.0,14.0,-100.00,SSE,160,4.0,6.0,51,0.00,,,-99.99,,2013-02-23 23:41:00,
2013-02-23 17:52:00,29.0,14.0,-100.00,South,185,3.0,5.0,52,0.00,,,-99.99,,2013-02-23 23:52:00,
2013-02-23 18:01:00,29.0,14.0,-100.00,South,185,3.0,5.0,52,0.00,,,-99.99,,2013-02-24 00:01:00,
2013-02-23 18:11:00,27.0,13.0,-100.00,SE,140,4.0,6.0,55,0.00,,,-99.99,,2013-02-24 00:11:00,
2013-02-23 18:22:00,27.0,13.0,-100.00,SE,140,5.0,6.0,56,0.00,,,-99.99,,2013-02-24 00:22:00,
2013-02-23 18:32:00,26.0,13.0,-100.00,SE,135,6.0,7.0,57,0.00,,,-99.99,,2013-02-24 00:32:00,
2013-02-23 18:42:00,26.0,13.0,-100.00,SE,135,6.0,7.0,57,0.00,,,-99.99,,2013-02-24 00:42:00,
2013-02-23 18:52:00,25.0,13.0,-100.00,SE,135,6.0,7.0,59,0.00,,,-99.99,,2013-02-24 00:52:00,
2013-02-23 19:01:00,25.0,13.0,-100.00,SE,135,6.0,7.0,59,0.00,,,-99.99,,2013-02-24 01:01:00,
2013-02-23 19:11:00,25.0,13.0,-100.00,SE,135,6.0,6.0,59,0.00,,,-99.99,,2013-02-24 01:11:00,
2013-02-23 19:22:00,24.0,12.0,-100.00,ESE,105,3.0,6.0,59,0.00,,,-99.99,,2013-02-24 01:22:00,
2013-02-23 19:31:00,21.0,10.0,-100.00,ESE,115,1.0,4.0,62,0.00,,,-99.99,,2013-02-24 01:31:00,
2013-02-23 19:41:00,21.0,10.0,-100.00,ESE,115,1.0,4.0,62,0.00,,,-99.99,,2013-02-24 01:41:00,
2013-02-23 19:51:00,20.0,10.0,-100.00,SE,130,3.0,4.0,64,0.00,,,-99.99,,2013-02-24 01:51:00,
2013-02-23 20:01:00,20.0,10.0,-100.00,SE,130,3.0,4.0,64,0.00,,,-99.99,,2013-02-24 02:01:00,
2013-02-23 20:11:00,22.0,12.0,-100.00,SE,145,4.0,7.0,65,0.00,,,-99.99,,2013-02-24 02:11:00,
2013-02-23 20:21:00,22.0,13.0,-100.00,SE,130,4.0,5.0,66,0.00,,,-99.99,,2013-02-24 02:21:00,
2013-02-23 20:32:00,18.0,9.0,-100.00,ENE,65,2.0,3.0,67,0.00,,,-99.99,,2013-02-24 02:32:00,
2013-02-23 20:41:00,18.0,9.0,-100.00,ENE,65,2.0,3.0,67,0.00,,,-99.99,,2013-02-24 02:41:00,
2013-02-23 20:52:00,17.0,9.0,-100.00,ENE,70,2.0,2.0,69,0.00,,,-99.99,,2013-02-24 02:52:00,
2013-02-23 21:01:00,17.0,9.0,-100.00,ENE,70,2.0,2.0,69,0.00,,,-99.99,,2013-02-24 03:01:00,
2013-02-23 21:11:00,17.0,9.0,-100.00,NE,55,2.0,3.0,71,0.00,,,-99.99,,2013-02-24 03:11:00,
2013-02-23 21:21:00,16.0,9.0,-100.00,ENE,65,3.0,4.0,71,0.00,,,-99.99,,2013-02-24 03:21:00,
2013-02-23 21:32:00,16.0,9.0,-100.00,ENE,60,3.0,4.0,73,0.00,,,-99.99,,2013-02-24 03:32:00,
2013-02-23 21:42:00,16.0,9.0,-100.00,ENE,60,3.0,4.0,73,0.00,,,-99.99,,2013-02-24 03:42:00,
2013-02-23 21:52:00,16.0,9.0,-100.00,NE,55,4.0,4.0,74,0.00,,,-99.99,,2013-02-24 03:52:00,
2013-02-23 22:01:00,16.0,9.0,-100.00,NE,55,4.0,4.0,74,0.00,,,-99.99,,2013-02-24 04:01:00,
2013-02-23 22:11:00,15.0,9.0,-100.00,NE,55,2.0,3.0,75,0.00,,,-99.99,,2013-02-24 04:11:00,
2013-02-23 22:21:00,15.0,9.0,-100.00,ENE,60,2.0,3.0,76,0.00,,,-99.99,,2013-02-24 04:21:00,
2013-02-23 22:31:00,14.0,8.0,-100.00,NE,55,3.0,4.0,77,0.00,,,-99.99,,2013-02-24 04:31:00,
2013-02-23 22:41:00,14.0,8.0,-100.00,NE,55,3.0,4.0,77,0.00,,,-99.99,,2013-02-24 04:41:00,
2013-02-23 22:51:00,14.0,8.0,-100.00,NE,55,2.0,4.0,77,0.00,,,-99.99,,2013-02-24 04:51:00,
2013-02-23 23:01:00,14.0,8.0,-100.00,NE,55,2.0,4.0,77,0.00,,,-99.99,,2013-02-24 05:01:00,
2013-02-23 23:11:00,13.0,8.0,-100.00,NE,55,4.0,4.0,78,0.00,,,-99.99,,2013-02-24 05:11:00,
2013-02-23 23:22:00,13.0,8.0,-100.00,NE,45,5.0,6.0,79,0.00,,,-99.99,,2013-02-24 05:22:00,
2013-02-23 23:32:00,13.0,8.0,-100.00,ENE,65,3.0,3.0,79,0.00,,,-99.99,,2013-02-24 05:32:00,
2013-02-23 23:42:00,13.0,8.0,-100.00,ENE,65,3.0,3.0,79,0.00,,,-99.99,,2013-02-24 05:42:00,
2013-02-23 23:52:00,13.0,8.0,-100.00,ENE,60,4.0,4.0,80,0.00,,,-99.99,,2013-02-24 05:52:00,